sat.trackr.live / text

‹ back to catalog

KUIPER-00012

NORAD 63728 · 2025-088E

PAYLOAD ACTIVE UNKNOWN

§ Identity

Operator
Country
US
Launch date
2025-04-28
Launch site
AFETR
Launch vehicle
Mass (kg)
RCS (m²)

External: N2YO · Heavens-Above · Gunter

§ Orbital elements

Epoch: 2026-09-21T08:23:30.676704Z

Period
97.30 min
Inclination
51.9018°
Eccentricity
0.0000596
Mean motion
14.79946051 rev/d
Perigee alt
629.1 km
Apogee alt
629.9 km
Semi-major
7,007.6 km
B*
3.2671e-4
RAAN
290.3939°
Arg perigee
62.7704°
Mean anomaly
297.3319°
Rev number
7,689

§ Raw data

KUIPER-000121 63728U 25088E   26264.34966061  .00002271  00000+0  32671-3 0  99972 63728  51.9018 290.3939 0000596  62.7704 297.3319 14.79946051 76893

JSON: /api/v1/satellites/63728 · /tle

For live sub-satellite position, see the globe view (requires WebGL).

§ Visibility from observer

Set your observer location to see the next 7 days of passes ≥ 10°. The values pass through the URL so the page stays shareable.

No JS? Fill the form by hand. The geolocation button needs JavaScript.